Regional Weather Roundup
Issued by NWS Jackson, KY

Home | Current Version | Previous Version | Graphics & Text | Print | Product List | Glossary On
Versions: 1 2 3 4 5 6 7 8 9 10 11 12 13 14 15 16 17 18 19 20 21 22 23 24 25 26 27
000
ASUS43 KJKL 271810
RWRJKL

EAST KENTUCKY HOURLY WEATHER ROUNDUP
NATIONAL WEATHER SERVICE JACKSON KY
200 PM EDT FRI MAY 27 2016

NOTE: "FAIR" INDICATES FEW OR NO CLOUDS BELOW 12,000 FEET WITH
NO SIGNIFICANT WEATHER AND/OR OBSTRUCTIONS TO VISIBILITY.

* THESE REPORTS ARE NOT UNDER NWS QUALITY CONTROL AND MAY NOT
  REPORT WEATHER SUCH AS PRECIPITATION AND FOG.

KYZ079-080-083-085-087-088-110-112-115-119-120-271900
...EASTERN KENTUCKY...

CITY           SKY/WX    TMP DP  RH WIND       PRES   REMARKS
JACKSON        PTSUNNY   84  65  52 CALM      30.10F
6HR MIN TEMP:  68; 6HR MAX TEMP:  84;

LONDON         SUNNY     83  59  44 SW9       30.09F
6HR MIN TEMP:  66; 6HR MAX TEMP:  84;

SOMERSET*      PTSUNNY   81  64  57 CALM      30.08F
MONTICELLO*    PTSUNNY   84  67  56 W13       30.08F
6HR MIN TEMP:  70; 6HR MAX TEMP:  85;

WILLIAMSBURG*  CLEAR     82  64  54 S5        30.09F
MIDDLESBORO*   MOSUNNY   85  65  52 S7        30.10F
6HR MIN TEMP:  62; 6HR MAX TEMP:  85;

HARLAN APT*    MOCLDY    81  63  54 W3        30.11F
HAZARD APT*    PTCLDY    84  64  51 SW9       30.09F
BLACK MTN*       N/A     77  63  61 W3          N/A
PIKE CO APT*   PTSUNNY   83  64  52 CALM      30.10F
MOREHEAD APT*  CLEAR     84  64  51 SW8G15    30.09F
ASHLAND*       PTSUNNY   86  70  58 W10       30.03F HX  90
$$

KYZ035-036-041-042-044-050-067-078-099-271900
...CENTRAL KENTUCKY...

CITY           SKY/WX    TMP DP  RH WIND       PRES   REMARKS
MT STERLING*   SUNNY     82  66  57 W10       30.08F
FLEMING/MASON* SUNNY    N/A N/A N/A S9        30.07F
DANVILLE*      CLOUDY    82  64  54 SW9       30.08F
RICHMOND*      CLOUDY    82  63  51 SW10G16   30.07F
LEXINGTON      MOSUNNY   84  63  49 S9        30.06F
6HR MIN TEMP:  68; 6HR MAX TEMP:  84;

FRANKFORT      SUNNY     85  63  47 S9G20     30.03F
6HR MIN TEMP:  66; 6HR MAX TEMP:  86;

LOUISVILLE     PTSUNNY   85  63  47 S13       30.00F
6HR MIN TEMP:  68; 6HR MAX TEMP:  85;

LEBANON*         N/A     82  66  57 S8        30.05F
GLASGOW*       MOSUNNY   83  64  53 S10G16    30.03F
BOWLING GREEN  MOSUNNY   83  65  54 S14       30.01F
6HR MIN TEMP:  67; 6HR MAX TEMP:  84;

$$

KYZ091>093-OHZ055-061-077-WVZ005-015-034-035-042-271900
...SOUTHERN OHIO/WEST VIRGINIA...

CITY           SKY/WX    TMP DP  RH WIND       PRES   REMARKS
COVINGTON      MOSUNNY   84  65  52 SW12      30.03F
COLUMBUS       PTSUNNY   83  63  50 S9G17     30.03F
DAYTON         MOSUNNY   84  63  49 SW8G17    30.03F
WILMINGTON     SUNNY     84  63  49 SW15      30.04F
HUNTINGTON       N/A     86  67  52 W5        30.06F
CHARLESTON       N/A     87  63  44 CALM      30.07F
PINEVILLE*       N/A     87  55  34 MISG      30.16F
BECKLEY          N/A     83  57  41 VRB5      30.16F
BLUEFIELD      CLOUDY    74  58  57 CALM      30.20S
LOGAN CO APT*    N/A     82  64  54 S5        30.11F
$$

VAZ002-007-008-TNZ017-027-036-066-071-271900
...SOUTHWEST VIRGINIA/EAST TENNESSEE...

CITY           SKY/WX    TMP DP  RH WIND       PRES   REMARKS
WISE*          CLOUDY    77  57  50 CALM      30.18F
JONESVILLE*      N/A     84  64  51 W6        30.12F
ABINGDON*        N/A     85  61  45 SW5       30.14F
BRISTOL        MOSUNNY   85  62  46 N5        30.11F
SEVIERVILLE*     N/A     82  63  51 VRB3      30.08F
KNOXVILLE      PTSUNNY   82  64  54 W7        30.06F THUNDER
OAK RIDGE      MOSUNNY   85  63  47 VRB5      30.08F
CROSSVILLE     MOSUNNY   80  64  58 VRB6      30.12F
NASHVILLE      PTSUNNY   87  61  41 SW14G21   30.01F
$$

...KEY TO REMARKS...
VSB - VISIBILITY IN MILES
WCI - WIND CHILL INDEX
HX  - HEAT INDEX

$$




USA.gov is the U.S. government's official web portal to all federal, state and local government web resources and services.